Погода в Пуэре

Китай     22°47′30″N   100°58′33″E
темп.,
°C
ветер,
м/с
пор.,
м/с
влажн.,
%
обл.,
%
осадки,
мм/ч
давл.,
гПа
погр.,
м
19 мая, ср
ср1923:00+21ю116098 0.0 100811
02:00+19ю1167100 0.0 100818
05:00+18ююв117984 0.0 100722
08:00+22ю137065 0.0 1008204
11:00+30зюз483994 0.0 10062242
14:00+31зюз4836100 0.0 10042903
17:00+31зсз373552 0.1 10022513
20:00+23з136466 0.4 100564
20 мая, чт
чт2023:00+20ююз117427 0.0 100711
02:00+19ююв118098 0.0 100713
05:00+18ююв118695 0.0 100711
08:00+21ю127264 0.0 1008150
11:00+30зюз364137 0.0 10061966
14:00+31зюз2634100 0.1 10032380
17:00+32з473139 0.0 10012250
20:00+27з310435 0.0 1003598
21 мая, пт
пт2123:00+22з11595 0.0 100611
02:00+21ю11665 0.0 100511
05:00+19ююв11775 0.0 100518
08:00+22ю12675 0.0 1007182
11:00+31зюз373713 0.0 10062228
14:00+33з363053 0.0 10022912
17:00+32юз473237 0.0 9992347
20:00+27зюз29465 0.0 1002459
22 мая, сб
сб2223:00+22ююз00615 0.0 100511
02:00+21ююв11675 0.0 100412
05:00+19ююв11748 0.0 100411
08:00+23ю126311 0.0 1005174
11:00+31зюз36375 0.0 10042082
14:00+30зюз253885 0.2 10011995
17:00+29зсз264290 0.2 10001343
20:00+27з134783 0.3 99969
23 мая, вс
вс2323:00+23вюв1362100 0.0 100468
02:00+20юв1281100 0.0 100455
05:00+19вюв1189100 0.0 100438
08:00+22юв137790 0.0 1006256
11:00+29ю234739 0.0 10051703
14:00+29ю134599 0.1 10021294
17:00+22вюв1179100 0.8 100342
20:00+20в119331 4.2 100424